Epoch 2023 Feb. 25.0 TT = JDT 2460000.5 T 2019 Aug. 22.77529 TT Rudenko q 1.9479428 (2000.0) P Q z +0.0005973 Peri. 347.19946 +0.10147830 +0.03386449 +/-0.0000520 Node 276.11125 -0.80169948 -0.58897991 e 0.9988364 Incl. 89.39266 -0.58905017 +0.80743784 H 12.5 >From 342 observations 2019 June 20-Oct. 30, mean residual 0".2.
H = 12.5 G = 0.15